Location: Unspecified
(0.0000°N, 0.0000°E)
Time: 02:24:17
(UTC+00:00)

Transit 2A Rocket - All Passes

Search period start: 24 September 2014 00:00
Search period end: 04 October 2014 00:00
Orbit: 593 x 916 km, 66.7° (Epoch: 23 September)

Date Brightness Start Highest point End Pass type
(mag) Time Alt. Az. Time Alt. Az. Time Alt. Az.
24 Sep - 11:04:54 10° NNW 11:10:40 79° WSW 11:16:46 10° SSE daylight
24 Sep - 21:56:53 10° SSE 21:59:27 15° ESE 22:01:56 10° ENE night (unlit)
24 Sep - 23:38:20 10° WSW 23:41:48 22° WNW 23:45:09 10° NNW night (unlit)
25 Sep - 10:23:27 10° N 10:29:03 54° ENE 10:34:57 10° SSE daylight
25 Sep - 12:09:16 10° W 12:11:38 12° WSW 12:14:02 10° SW daylight
25 Sep - 22:55:49 10° SSW 23:00:13 51° WNW 23:04:24 10° N night (unlit)
26 Sep - 09:42:37 10° NNE 09:47:27 28° ENE 09:52:29 10° SE daylight
26 Sep - 11:25:12 10° WNW 11:29:54 25° WSW 11:34:45 10° SSW daylight
26 Sep - 22:14:06 10° SSW 22:18:37 65° ESE 22:22:52 10° NNE night (unlit)
27 Sep - 09:02:58 10° NE 09:05:50 14° ENE 09:08:46 10° E daylight
27 Sep - 10:42:37 10° NW 10:48:12 48° WSW 10:54:02 10° S daylight
27 Sep - 21:33:06 10° S 21:36:57 27° ESE 21:40:38 10° NE night (unlit)
27 Sep - 23:17:45 10° W 23:19:13 11° WNW 23:20:39 10° NW night (unlit)
28 Sep - 10:00:44 10° NNW 10:06:32 89° ENE 10:12:39 10° SSE daylight
28 Sep - 20:53:30 10° SE 20:55:14 12° ESE 20:56:57 10° E night (unlit)
28 Sep - 22:33:52 10° SW 22:37:37 26° WNW 22:41:14 10° NNW night (unlit)
29 Sep - 09:19:24 10° N 09:24:55 46° ENE 09:30:42 10° SE daylight
29 Sep - 11:04:16 10° WNW 11:07:28 15° WSW 11:10:44 10° SW daylight
29 Sep - 21:51:34 10° SSW 21:56:02 64° WNW 22:00:16 10° N night (unlit)
30 Sep - 08:38:45 10° NNE 08:43:19 24° ENE 08:48:02 10° ESE daylight
30 Sep - 10:20:45 10° NW 10:25:44 29° WSW 10:30:55 10° SSW daylight
30 Sep - 21:10:01 10° S 21:14:25 52° ESE 21:18:35 10° NNE night (unlit)
01 Oct - 07:59:43 10° NE 08:01:41 12° ENE 08:03:40 10° E daylight
01 Oct - 09:38:21 10° NNW 09:44:03 56° WSW 09:50:01 10° S daylight
01 Oct - 20:29:13 10° SSE 20:32:45 22° ESE 20:36:08 10° ENE night (unlit)
01 Oct - 22:12:43 10° WSW 22:15:01 14° WNW 22:17:17 10° NW night (unlit)
02 Oct - 08:56:35 10° NNW 09:02:24 77° ENE 09:08:30 10° SSE daylight
02 Oct - 21:29:27 10° SW 21:33:26 32° WNW 21:37:16 10° N night (unlit)
03 Oct - 08:15:23 10° N 08:20:47 40° ENE 08:26:25 10° SE daylight
03 Oct - 09:59:29 10° WNW 10:03:18 18° WSW 10:07:11 10° SSW daylight
03 Oct - 20:47:21 10° SSW 20:51:50 79° WNW 20:56:07 10° NNE night (unlit)
